| time (UTC) | temp F | wind direction | speed knots | gust knots | rain 1hr in | rain 24hr in | rain mn in | humidity % | barometer mb |
| 20260506214522 | 39 | 183 | 1.7 | 7.8 | 0.05 | 0.30 | 0.30 | 60 | 1013.3 |
| 20260506213020 | 39 | 194 | 1.7 | 8.7 | 0.08 | 0.28 | 0.28 | 58 | 1013.0 |
| 20260506211518 | 38 | 215 | 3.5 | 11.3 | 0.11 | 0.28 | 0.28 | 68 | 1012.9 |
| 20260506210020 | 36 | 106 | 1.7 | 12.2 | 0.12 | 0.26 | 0.26 | 71 | 1012.8 |
| 20260506204516 | 39 | 161 | 1.7 | 7.0 | 0.17 | 0.25 | 0.25 | 63 | 1012.2 |
| 20260506203013 | 37 | 224 | 1.7 | 6.1 | 0.18 | 0.21 | 0.21 | 67 | 1012.2 |
| 20260506201511 | 36 | 207 | 3.5 | 8.7 | 0.17 | 0.17 | 0.17 | 72 | 1012.0 |
| 20260506200010 | 37 | 140 | 2.6 | 7.8 | 0.13 | 0.13 | 0.13 | 70 | 1011.4 |
| 20260506194608 | 37 | 194 | 0.9 | 6.1 | 0.08 | 0.08 | 0.08 | 71 | 1011.3 |
| 20260506193106 | 38 | 247 | 2.6 | 7.8 | 0.03 | 0.03 | 0.03 | 61 | 1010.9 |
| 20260506191509 | 38 | 196 | 1.7 | 5.2 | 0.00 | 0.00 | 0.00 | 61 | 1010.7 |
| 20260506190002 | 38 | 223 | 0.9 | 13.0 | 0.00 | 0.00 | 0.00 | 64 | 1010.6 |
| 20260506184603 | 37 | 288 | 0.9 | 8.7 | 0.00 | 0.00 | 0.00 | 65 | 1010.6 |
| 20260506183100 | 35 | 222 | 0.9 | 5.2 | 0.00 | 0.00 | 0.00 | 79 | 1010.4 |
| 20260506181557 | 35 | 195 | 0.9 | 2.6 | 0.00 | 0.00 | 0.00 | 84 | 1010.1 |
| 20260506180056 | 37 | 268 | 0.0 | 5.2 | 0.00 | 0.00 | 0.00 | 82 | 1009.8 |
| 20260506174552 | 36 | 177 | 0.0 | 1.7 | 0.00 | 0.00 | 0.00 | 85 | 1010.2 |
| 20260506173107 | 34 | 226 | 0.0 | 0.0 | 0.00 | 0.00 | 0.00 | 90 | 1010.2 |
| 20260506171555 | 32 | 173 | 0.0 | 0.0 | 0.00 | 0.00 | 0.00 | 92 | 1010.3 |
| 20260506170050 | 30 | 136 | 0.0 | 0.0 | 0.00 | 0.00 | 0.00 | 92 | 1010.3 |
| 20260506164544 | 31 | 129 | 0.0 | 0.9 | 0.00 | 0.00 | 0.00 | 91 | 1010.5 |
| 20260506163056 | 32 | 269 | 0.0 | 0.0 | 0.00 | 0.00 | 0.00 | 91 | 1009.5 |
| 20260506161543 | 33 | 238 | 0.0 | 0.0 | 0.00 | 0.00 | 0.00 | 92 | 1008.9 |
| 20260506160039 | 32 | 257 | 0.0 | 0.0 | 0.00 | 0.00 | 0.00 | 92 | 1008.9 |
| 20260506154539 | 32 | 139 | 0.0 | 0.0 | 0.00 | 0.00 | 0.00 | 91 | 1009.0 |
| 20260506153040 | 33 | 184 | 0.0 | 1.7 | 0.00 | 0.00 | 0.00 | 88 | 1009.1 |
| 20260506151535 | 33 | 67 | 0.0 | 0.0 | 0.00 | 0.00 | 0.00 | 88 | 1008.7 |
| 20260506150036 | 33 | 229 | 0.0 | 0.0 | 0.00 | 0.00 | 0.00 | 89 | 1009.0 |
| 20260506144537 | 32 | 253 | 0.0 | 0.0 | 0.00 | 0.00 | 0.00 | 90 | 1008.8 |
| 20260506143032 | 33 | 270 | 0.0 | 0.9 | 0.00 | 0.00 | 0.00 | 88 | 1008.8 |
| 20260506141531 | 32 | 126 | 0.0 | 0.9 | 0.00 | 0.00 | 0.00 | 91 | 1008.7 |
| 20260506140038 | 31 | 250 | 0.0 | 0.0 | 0.00 | 0.00 | 0.00 | 94 | 1008.7 |
| 20260506134529 | 31 | 250 | 0.0 | 0.0 | 0.00 | 0.00 | 0.00 | 94 | 1008.5 |
| 20260506133030 | 31 | 250 | 0.0 | 0.0 | 0.00 | 0.00 | 0.00 | 94 | 1008.5 |
| 20260506131533 | 30 | 250 | 0.0 | 0.0 | 0.00 | 0.00 | 0.00 | 94 | 1008.4 |
| 20260506130028 | 30 | 250 | 0.0 | 0.0 | 0.00 | 0.00 | 0.00 | 94 | 1008.3 |
| 20260506124525 | 30 | 250 | 0.0 | 0.0 | 0.00 | 0.00 | 0.00 | 94 | 1008.1 |
| 20260506123024 | 30 | 252 | 0.0 | 0.0 | 0.00 | 0.00 | 0.00 | 94 | 1007.9 |
| 20260506121522 | 30 | 252 | 0.0 | 0.0 | 0.00 | 0.00 | 0.00 | 93 | 1007.7 |
| 20260506120030 | 31 | 252 | 0.0 | 0.0 | 0.00 | 0.00 | 0.00 | 93 | 1007.8 |
| 20260506114518 | 31 | 252 | 0.0 | 0.0 | 0.00 | 0.00 | 0.00 | 93 | 1007.7 |
| 20260506113019 | 31 | 260 | 0.0 | 0.9 | 0.00 | 0.00 | 0.00 | 92 | 1007.6 |
| 20260506111518 | 32 | 203 | 0.0 | 0.0 | 0.00 | 0.00 | 0.00 | 92 | 1007.3 |
| 20260506110015 | 32 | 131 | 0.0 | 0.9 | 0.00 | 0.00 | 0.00 | 91 | 1007.1 |
| 20260506104513 | 32 | 131 | 0.0 | 0.0 | 0.00 | 0.00 | 0.00 | 92 | 1007.1 |
| 20260506103019 | 32 | 131 | 0.0 | 0.0 | 0.00 | 0.00 | 0.00 | 92 | 1007.1 |
| 20260506101513 | 32 | 222 | 0.0 | 0.0 | 0.00 | 0.00 | 0.00 | 92 | 1007.0 |
| 20260506100011 | 32 | 222 | 0.0 | 0.0 | 0.00 | 0.00 | 0.00 | 92 | 1007.0 |
| 20260506094510 | 32 | 221 | 0.0 | 0.0 | 0.00 | 0.00 | 0.00 | 92 | 1006.8 |
| 20260506093013 | 32 | 264 | 0.0 | 0.9 | 0.00 | 0.00 | 0.00 | 91 | 1006.7 |
| 20260506091508 | 32 | 134 | 0.0 | 2.6 | 0.00 | 0.00 | 0.00 | 88 | 1006.6 |
| 20260506090005 | 33 | 35 | 0.0 | 0.0 | 0.00 | 0.00 | 0.00 | 88 | 1006.6 |
| 20260506084511 | 33 | 146 | 0.0 | 0.9 | 0.00 | 0.00 | 0.00 | 90 | 1006.7 |
| 20260506083003 | 33 | 160 | 0.0 | 0.0 | 0.00 | 0.00 | 0.00 | 88 | 1006.7 |
| 20260506081504 | 33 | 63 | 0.0 | 0.9 | 0.00 | 0.00 | 0.00 | 90 | 1007.0 |
| 20260506080112 | 33 | 271 | 0.0 | 0.9 | 0.00 | 0.00 | 0.00 | 91 | 1007.1 |
| 20260506073110 | 33 | 271 | 0.0 | 0.9 | 0.00 | 0.00 | 0.00 | 90 | 1007.2 |
| 20260506071554 | 34 | 265 | 0.0 | 0.9 | 0.00 | 0.00 | 0.00 | 88 | 1007.3 |
| 20260506061559 | 34 | 259 | 0.0 | 0.9 | 0.00 | 0.00 | 0.00 | 88 | 1007.3 |
| 20260506044541 | 34 | 281 | 0.0 | 0.9 | 0.00 | 0.00 | 0.00 | 89 | 1007.2 |
| 20260506043043 | 34 | 266 | 0.0 | 1.7 | 0.00 | 0.00 | 0.00 | 88 | 1007.1 |
| 20260506041544 | 35 | 199 | 0.0 | 4.3 | 0.00 | 0.00 | 0.00 | 83 | 1007.0 |
| 20260506040037 | 36 | 115 | 0.0 | 0.9 | 0.00 | 0.00 | 0.00 | 72 | 1006.7 |
| 20260506034536 | 38 | 237 | 0.0 | 5.2 | 0.00 | 0.00 | 0.00 | 69 | 1006.4 |
| 20260506033036 | 40 | 141 | 0.0 | 4.3 | 0.00 | 0.00 | 0.00 | 51 | 1005.7 |
| 20260506031536 | 40 | 74 | 0.0 | 0.9 | 0.00 | 0.00 | 0.00 | 47 | 1005.1 |
| 20260506030036 | 40 | 68 | 0.0 | 1.7 | 0.00 | 0.00 | 0.00 | 49 | 1005.0 |
| 20260506024534 | 40 | 257 | 0.0 | 0.0 | 0.00 | 0.00 | 0.00 | 48 | 1004.6 |
| 20260506023039 | 41 | 257 | 0.0 | 0.0 | 0.00 | 0.00 | 0.00 | 46 | 1004.3 |
| 20260506021534 | 42 | 257 | 0.0 | 0.9 | 0.00 | 0.00 | 0.00 | 47 | 1004.3 |
| 20260506020106 | 42 | 266 | 0.0 | 3.5 | 0.00 | 0.00 | 0.00 | 43 | 1004.3 |
| 20260506014532 | 44 | 37 | 1.7 | 9.6 | 0.00 | 0.00 | 0.00 | 40 | 1004.1 |
| 20260506013032 | 45 | 58 | 1.7 | 6.1 | 0.00 | 0.00 | 0.00 | 38 | 1003.7 |
| 20260506011534 | 46 | 66 | 0.0 | 1.7 | 0.00 | 0.00 | 0.00 | 35 | 1003.5 |
| 20260506010031 | 47 | 110 | 0.9 | 3.5 | 0.00 | 0.00 | 0.00 | 34 | 1003.5 |
| 20260506004534 | 48 | 240 | 1.7 | 5.2 | 0.00 | 0.00 | 0.00 | 31 | 1003.4 |
| 20260506003030 | 50 | 279 | 0.9 | 4.3 | 0.00 | 0.00 | 0.00 | 30 | 1003.1 |
| 20260506001530 | 50 | 169 | 0.0 | 6.1 | 0.00 | 0.00 | 0.00 | 27 | 1003.2 |
| 20260506000043 | 51 | 285 | 0.9 | 4.3 | 0.00 | 0.00 | 0.00 | 28 | 1003.0 |
| 20260505234528 | 52 | 255 | 2.6 | 7.8 | 0.00 | 0.00 | 0.00 | 27 | 1003.0 |
| 20260505233028 | 52 | 110 | 0.0 | 6.1 | 0.00 | 0.00 | 0.00 | 25 | 1002.9 |
| 20260505231529 | 52 | 226 | 0.9 | 6.1 | 0.00 | 0.00 | 0.00 | 28 | 1003.0 |
| 20260505230039 | 53 | 255 | 0.0 | 5.2 | 0.00 | 0.00 | 0.00 | 27 | 1003.0 |
| 20260505224523 | 51 | 265 | 4.3 | 7.8 | 0.00 | 0.00 | 0.00 | 29 | 1003.1 |
| 20260505223021 | 50 | 138 | 0.0 | 9.6 | 0.00 | 0.00 | 0.00 | 30 | 1003.6 |
| 20260505221519 | 51 | 252 | 0.0 | 9.6 | 0.00 | 0.00 | 0.00 | 29 | 1003.5 |
| 20260505220017 | 52 | 43 | 1.7 | 6.1 | 0.00 | 0.00 | 0.00 | 27 | 1003.9 |